Butte, MT

12:27 AM MST on January 19, 2017 (GMT -0700)
Mooney

Weather History for KBTM - July, 2013

Change the Weather History Date:

Sunday, July 7, 2013

  Actual Average Record
Temperature  
Mean Temperature 67 °F 62 °F  
Max Temperature 86 °F 79 °F 93 °F (1989)
Min Temperature 48 °F 45 °F 28 °F (1971)
Degree Days  
Heating Degree Days 0 4  
Month to date heating degree days 1 34  
Since 1 June heating degree days 244 321  
Since 1 July heating degree days 1 34  
Cooling Degree Days 2 1  
Month to date cooling degree days 36 7  
Year to date cooling degree days 49 14  
Since 1 June cooling degree days 49 14  
Growing Degree Days 17 (Base 50)    
Moisture  
Dew Point 42 °F    
Average Humidity 47    
Maximum Humidity 77    
Minimum Humidity 16    
Precipitation  
Precipitation 0.00 in 0.04 in 1.28 in (1926)
Month to date precipitation 0.25 0.33  
Year to date precipitation 5.21 7.50  
Sea Level Pressure  
Sea Level Pressure 29.85 in    
Wind  
Wind Speed 5 mph (SE)    
Max Wind Speed 20 mph    
Max Gust Speed 25 mph    
Visibility 10 miles    
Events Thunderstorm    
T = Trace of Precipitation, MM = Missing Value Source: NWS Daily Summary

Daily Weather History Graph

Daily Weather History Graph

Search for Another Location

Airport or City:

Trip Planner

Search our weather history database for the weather conditions in past years. The results will help you decide how hot, cold, wet, or windy it might be!

Date:

Astronomy

Jul. 07, 2013 Rise Set
Actual Time 5:47 AM MDT 9:22 PM MDT
Civil Twilight 5:09 AM MDT 9:59 PM MDT
Nautical Twilight 4:19 AM MDT 10:49 PM MDT
Astronomical Twilight 3:12 AM MDT 11:55 PM MDT
Moon 5:30 AM MDT (7/7) 8:43 PM MDT (7/7)
Length of Visible Light 16h 49m
Length of Day
15h 34m
Waning Crescent, 0% of the Moon is Illuminated
Jul 7
Waning Crescent
Jul 8
New
Jul 15
First Quarter
Jul 22
Full
Jul 29
Last Quarter

Hourly Weather History & Observations

Time (MDT) Temp. Dew Point Humidity Pressure Visibility Wind Dir Wind Speed Gust Speed Precip Events Conditions
12:53 AM 59.0 °F 45.0 °F 60% 29.83 in 10.0 mi Calm Calm - N/A   Overcast
1:53 AM 57.0 °F 44.1 °F 62% 29.84 in 10.0 mi SE 6.9 mph - N/A   Clear
2:53 AM 54.0 °F 44.1 °F 69% 29.84 in 10.0 mi Calm Calm - N/A   Partly Cloudy
3:53 AM 54.0 °F 44.1 °F 69% 29.84 in 10.0 mi Calm Calm - N/A   Mostly Cloudy
4:53 AM 52.0 °F 44.1 °F 74% 29.85 in 10.0 mi SSE 4.6 mph - N/A   Mostly Cloudy
5:53 AM 50.0 °F 43.0 °F 77% 29.86 in 10.0 mi SE 4.6 mph - N/A   Scattered Clouds
6:53 AM 52.0 °F 44.1 °F 74% 29.88 in 10.0 mi South 8.1 mph - N/A   Clear
7:53 AM 57.9 °F 45.0 °F 62% 29.87 in 10.0 mi Calm Calm - N/A   Clear
8:53 AM 64.0 °F 45.0 °F 50% 29.86 in 10.0 mi North 3.5 mph - N/A   Clear
9:53 AM 68.0 °F 45.0 °F 43% 29.85 in 10.0 mi Calm Calm - N/A   Clear
10:53 AM 72.0 °F 46.0 °F 40% 29.85 in 10.0 mi Variable 3.5 mph - N/A   Clear
11:53 AM 79.0 °F 39.0 °F 24% 29.83 in 10.0 mi South 11.5 mph - N/A   Clear
12:53 PM 80.1 °F 32.0 °F 17% 29.81 in 10.0 mi Calm Calm - N/A   Clear
1:53 PM 82.0 °F 34.0 °F 18% 29.79 in 10.0 mi WNW 10.4 mph - N/A   Partly Cloudy
2:53 PM 84.9 °F 34.0 °F 16% 29.77 in 10.0 mi WNW 11.5 mph 18.4 mph N/A   Scattered Clouds
3:53 PM 82.9 °F 34.0 °F 17% 29.77 in 10.0 mi NW 11.5 mph 21.9 mph N/A   Mostly Cloudy
4:53 PM 84.9 °F 36.0 °F 17% 29.75 in 10.0 mi North 12.7 mph 18.4 mph N/A   Partly Cloudy
5:53 PM 81.0 °F 37.9 °F 21% 29.77 in 10.0 mi Variable 4.6 mph - N/A   Mostly Cloudy
6:25 PM 78.8 °F 42.8 °F 28% 29.94 in 10.0 mi ESE 10.4 mph - N/A   Mostly Cloudy
6:46 PM 77.0 °F 42.8 °F 29% 29.94 in 10.0 mi ESE 6.9 mph - N/A Thunderstorm Mostly Cloudy
6:53 PM 78.1 °F 39.9 °F 25% 29.79 in 10.0 mi SE 10.4 mph - N/A Thunderstorm Mostly Cloudy
7:01 PM 78.8 °F 41.0 °F 26% 29.95 in 10.0 mi ESE 12.7 mph 17.3 mph N/A   Mostly Cloudy
7:53 PM 75.9 °F 41.0 °F 29% 29.78 in 10.0 mi ENE 6.9 mph 18.4 mph N/A   Clear
8:21 PM 75.2 °F 42.8 °F 31% 29.97 in 10.0 mi South 10.4 mph 18.4 mph N/A   Partly Cloudy
8:42 PM 73.4 °F 42.8 °F 33% 29.97 in 10.0 mi South 10.4 mph 20.7 mph N/A   Partly Cloudy
8:53 PM 75.0 °F 42.1 °F 31% 29.79 in 10.0 mi North 3.5 mph - N/A   Clear
9:53 PM 69.1 °F 43.0 °F 39% 29.83 in 10.0 mi South 4.6 mph - N/A   Clear
10:53 PM 64.0 °F 45.0 °F 50% 29.85 in 10.0 mi Calm Calm - N/A   Clear
11:53 PM 62.1 °F 45.0 °F 53% 29.85 in 10.0 mi South 3.5 mph - N/A   Scattered Clouds